World > North America > United States > Utah

Hourly Center Creek, UT Regional Weather

Feedback E-mail the Weather

Quick WX

Center Creek, UT Weather Maps

°F °C°F °C
Center Creek Weather Map
UTC Time: 7/7/2022, 08:32
Your Time:

Center Creek, UT Regional Weather

Expires:202207070900;;886456
ASUS45 KSLC 070810
RWRUT 

UTAH REGIONAL WEATHER ROUNDUP
NATIONAL WEATHER SERVICE SALT LAKE CITY UT
200 AM MDT THU JUL 07 2022


UTZ101>105-107>111-070900-

NORTHERN UTAH
  
CITY           SKY/WX    TMP DP  RH WIND       PRES   REMARKS
BRIGHAM CITY   CLEAR     69  42  37 MISG      29.94S                  
HILL AFB       CLEAR     75  36  24 SE13      29.96S                  
LOGAN          CLEAR     66  43  43 CALM      29.96R                  
OGDEN          CLEAR     75  36  24 S12       29.95R                  
SALT LAKE CITY PTCLDY    81  40  23 SE10      29.95R                  
TOOELE VALLEY  CLEAR     75  36  23 S10       29.95F                  
WENDOVER       CLEAR     79  31  17 W7        29.91S                  
HEBER CITY       N/A     59  43  55 CALM      30.11S                  
WEST JORDAN    CLEAR     75  53  45 S16       30.00R                  

$$


SKY/WX - Weather  TMP - Temperature  DP - Dew Point  RH - Humidity
WIND - Wind Direction/Speed PRES - Barometric Pressure VSB - Visibility
WCI - Wind Chill Index E13G22 Wind - East Wind 13 mph/Gusts of 22 mph

Trending Headlines

Center Creek Radar Loop



Center Creek Quick Facts


National Two Day Weather Forecast


E-mail the Center Creek Weather Forecast

Voice your opinion or tell us about page issues...